Content
SEND FEEDBACK

Daily
Averages
Monthly
Summary
French Polynesia

PAPEETE, FRENCH POLYNESIA


Home > Oceania > French Polynesia
Elevation: 7 feet     Latitude: 17 33S     Longitude: 149 36W

WEATHER
 
SELECT A DAY
Number of Records: 214,112;   Date Range: 6/30/96 - 10/18/14
 
SHARE

PRINT THIS DATA

[ ← Previous Day ]
WEATHER ALMANAC - OCTOBER 15, 2013
[ Next Day → ]
[ °C ]   °F
Weather ElementAverageHighLow
Temperature79.6 °F86 °F (12:30 pm)73 °F (5:00 am)
Dewpoint68.2 °F70 °F (8:00 am)64.4 °F (11:00 pm)
Humidity67.6 %83 % (3:30 am)48 % (2:00 pm)
Barometer29.95 in30.01 in (8:00 am)29.92 in (1:00 am)
Wind Speed5 mph12.7 mph (4:00 pm)
Weather ElementAverage
Visibility7.8 mi
Wind DirectionSSW (200.2 °)

Weather ElementTotal
Precipitation---
Cooling Degree Days14.5 (Base 65)
Growing Degree Days29.5 (Base 50)
Averaged from 53 records on October 15, 2013
WEATHER CONDITIONS BREAKOUT
WIND DIRECTION BREAKOUT
WEATHER BY HOUR - OCTOBER 15, 2013
[ °C ]   °F
Local TimeTemperatureDewpointHumidityBarometerVisibilityWind DirectionWind SpeedGust SpeedPrecipitationEventsConditions
12:30 AM75.2 °F68.0 °F78 %29.95 in6.2 miSouth (170°)3.5 mphScattered Clouds
1:00 AM75.2 °F68.0 °F78 %29.92 in6.2 miVariable2.3 mphPartly Cloudy
1:30 AM75.2 °F68.0 °F78 %29.92 in6.2 miSouth (170°)4.6 mphScattered Clouds
2:00 AM75.0 °F67.0 °F71 %29.94 in12.0 miEast (90°)2.2 mphScattered Clouds
2:00 AM75.2 °F68.0 °F78 %29.92 in6.2 miVariable1.2 mphScattered Clouds
2:30 AM75.2 °F68.0 °F78 %29.92 in6.2 miCalmPartly Cloudy
3:00 AM75.2 °F68.0 °F78 %29.92 in6.2 miEast (90°)4.6 mphPartly Cloudy
3:30 AM73.4 °F68.0 °F83 %29.92 in6.2 miEast (100°)3.5 mph
4:00 AM73.4 °F68.0 °F83 %29.92 in6.2 miCalm
4:30 AM73.4 °F68.0 °F83 %29.92 in6.2 miESE (110°)2.3 mph
5:00 AM73.0 °F67.0 °F78 %29.95 in37.0 miCalmClear
5:00 AM73.4 °F68.0 °F83 %29.95 in6.2 miCalm
5:30 AM73.4 °F68.0 °F83 %29.95 in6.2 miSSE (160°)3.5 mph
6:00 AM73.4 °F68.0 °F83 %29.95 in6.2 miSSE (150°)4.6 mphPartly Cloudy
7:00 AM78.8 °F69.8 °F74 %29.98 in6.2 miVariable3.5 mphScattered Clouds
7:30 AM80.6 °F69.8 °F70 %29.98 in6.2 miWNW (300°)1.2 mphScattered Clouds
8:00 AM81.0 °F70.0 °F61 %30.01 in16.0 miNNW (330°)3.5 mphPartly Cloudy
8:00 AM80.6 °F69.8 °F70 %30.01 in6.2 miNNW (330°)3.5 mphScattered Clouds
8:30 AM82.4 °F69.8 °F66 %30.01 in6.2 miVariable2.3 mphScattered Clouds
9:00 AM82.4 °F69.8 °F66 %30.01 in6.2 miWNW (300°)3.5 mphScattered Clouds
9:30 AM82.4 °F69.8 °F66 %30.01 in6.2 miWest (280°)4.6 mphScattered Clouds
10:00 AM82.4 °F69.8 °F66 %30.01 in6.2 miWSW (250°)5.8 mphScattered Clouds
10:30 AM82.4 °F68.0 °F62 %29.98 in6.2 miWSW (250°)8.1 mphScattered Clouds
11:00 AM83.0 °F69.0 °F55 %29.99 in16.0 miWest (260°)6.9 mphScattered Clouds
11:30 AM84.2 °F69.8 °F62 %29.95 in6.2 miWest (280°)9.2 mphMostly Cloudy
12:00 PM84.2 °F68.0 °F58 %29.95 in6.2 miWNW (300°)11.5 mphMostly Cloudy
12:30 PM86.0 °F68.0 °F55 %29.95 in6.2 miNNW (340°)6.9 mphMostly Cloudy
1:00 PM86.0 °F68.0 °F55 %29.92 in6.2 miNW (320°)4.6 mphMostly Cloudy
1:30 PM86.0 °F66.2 °F51 %29.92 in6.2 miWNW (290°)4.6 mphMostly Cloudy
2:00 PM85.0 °F68.0 °F48 %29.92 in16.0 miWest (270°)8.9 mphPartly Cloudy
2:00 PM84.2 °F68.0 °F58 %29.92 in6.2 miWest (270°)4.6 mphMostly Cloudy
2:30 PM84.2 °F69.8 °F62 %29.92 in6.2 miWest (270°)10.4 mphMostly Cloudy
3:00 PM84.2 °F69.8 °F62 %29.92 in6.2 miWNW (290°)11.5 mphMostly Cloudy
3:30 PM82.4 °F69.8 °F66 %29.92 in6.2 miWNW (300°)11.5 mphMostly Cloudy
4:00 PM82.4 °F69.8 °F66 %29.92 in6.2 miWNW (300°)12.7 mphMostly Cloudy
4:30 PM82.4 °F69.8 °F66 %29.92 in6.2 miWNW (300°)10.4 mphMostly Cloudy
5:00 PM83.0 °F68.0 °F52 %29.94 in16.0 miWest (280°)5.8 mphPartly Cloudy
5:00 PM82.4 °F68.0 °F62 %29.92 in6.2 miWest (280°)5.8 mphMostly Cloudy
5:30 PM82.4 °F68.0 °F62 %29.95 in6.2 miWest (270°)4.6 mphMostly Cloudy
6:00 PM80.6 °F69.8 °F70 %29.95 in6.2 miWest (260°)5.8 mphMostly Cloudy
6:30 PM80.6 °F66.2 °F61 %29.95 in6.2 miWest (280°)5.8 mphMostly Cloudy
7:00 PM80.6 °F69.8 °F70 %29.95 in6.2 miWest (260°)6.9 mphMostly Cloudy
7:30 PM78.8 °F68.0 °F69 %29.95 in6.2 miSW (230°)3.5 mphMostly Cloudy
8:00 PM79.0 °F68.0 °F61 %29.97 in12.0 miWSW (250°)11.2 mphScattered Clouds
8:00 PM78.8 °F68.0 °F69 %29.95 in6.2 miWSW (250°)5.8 mphMostly Cloudy
8:30 PM78.8 °F68.0 °F69 %29.95 in6.2 miWSW (250°)6.9 mphMostly Cloudy
9:00 PM78.8 °F68.0 °F69 %29.98 in6.2 miSouth (170°)3.5 mphMostly Cloudy
9:30 PM78.8 °F68.0 °F69 %29.98 in6.2 miSSE (160°)5.8 mphMostly Cloudy
10:00 PM78.8 °F66.2 °F65 %29.98 in6.2 miESE (110°)4.6 mphOvercast
10:30 PM77.0 °F66.2 °F69 %29.95 in6.2 miEast (100°)3.5 mphMostly Cloudy
11:00 PM77.0 °F65.0 °F58 %29.96 in12.0 miCalmScattered Clouds
11:00 PM77.0 °F64.4 °F65 %29.95 in6.2 miCalmMostly Cloudy
11:30 PM77.0 °F64.4 °F65 %29.95 in6.2 miSouth (190°)3.5 mphMostly Cloudy
Hourly data recorded from NTAA, located miles away from Papeete, French Polynesia







STORIES FROM OUR PARTNERS